APRIZESAT 10

Satellite information

Favourite Embed

Satellite Type and Status

PAYLOADIN ORBIT

Key statistics

Satellite APRIZESAT 10 at a glance.

Uptime

4147

Days in orbit

Revolutions

≈ 14.7

Per day

Orbit

SSO

Sun Synchronous Orbit

Inclination

97.9

Latest

Satellite identification and parameters

Extended collection of information and parameters for APRIZESAT 10.

Object identification

Identified? True

Debris? False

Object name: APRIZESAT 10

International designator: 2014-033K

Object number (NORAD): 40019

Object ID (CCSDS): 40019

Country: UNITED STATES OF AMERICA (US)

Current information (Y/N): Y

RCS size: MEDIUM

Orbital parameters

Period: 97.928 minutes

Inclination: 97.9369 deg

SMA: 7037.728 km

Apoapsis: 714.651 km

Periapsis: 604.534 km

RAAN: 66.645 deg

Eccentricy: 0.00782328

Argument of periapsis: 302.3691 deg

Mean anomaly: 56.9961 deg

Mean motion: 14.70462957 rev/day

Mean motion (dot): 0.00000953 rev/day2

B* drag term: 0.00015837893 1/REarth

Two-line elements (TLE)

Creation date: Oct. 26, 2025, 2:54 a.m.

Reference frame: TEME

Reference center: EARTH

Epoch: Oct. 25, 2025, 10:46 p.m. UTC

TLE line 0: 0 APRIZESAT 10

TLE line 1: 1 40019U 14033K 25298.94887460 .00000953 00000-0 15838-3 0 9992

TLE line 2: 2 40019 97.9369 66.6450 0078233 302.3691 56.9961 14.70462957607827

Live tracking on map

Real-time ground track for satellite APRIZESAT 10.

In-orbit conjunctions

There are no conjunctions computed for APRIZESAT 10, at the moment. Check back to stay up to date, as we update our databases every day.

Go to all conjunctions

Associated space launch

APRIZESAT 10 was lifted into orbit during the mission ‘Dnepr 1 | Multipayload, 37 satellites.’, on board a Dnepr space rocket.

The launch took place on June 19, 2014, 7:11 p.m. from 370/13.

For more information about the launch, click the button.

Launch to space Dnepr 1 | Multipayload, 37 satellites.
Dnepr 1 | Multipayload, 37 satellites.

Agency: N/A

Status: Launch Successful

Launch date: June 19, 2014, 7:11 p.m. UTC

Rocket: Dnepr

Launch pad: 370/13

Location: Dombarovskiy, Russian Federation

...

Latest news about this satellite

There are no fresh news available about this satellite. Check back as we update our databases every day.


Newsletter sign-up

Weekly statistics, charts and insights to help you stay on top of the space industry.